www.pogodaiklimat.ru
ПОГОДА на Мыкене
Время
(UTC), дата
01 12.11
02 12.11
03 12.11
04 12.11
05 12.11
06 12.11
07 12.11
08 12.11
09 12.11
10 12.11
11 12.11
12 12.11
13 12.11
14 12.11
15 12.11
16 12.11
17 12.11
18 12.11
19 12.11
20 12.11
21 12.11
22 12.11
23 12.11
00 13.11
01 13.11
02 13.11
03 13.11
04 13.11
05 13.11
06 13.11
07 13.11
08 13.11
09 13.11
10 13.11
11 13.11
12 13.11
13 13.11
14 13.11
15 13.11
16 13.11
17 13.11
18 13.11
19 13.11
21 13.11
00 14.11
01 14.11
02 14.11
03 14.11
04 14.11
05 14.11
06 14.11
07 14.11
08 14.11
09 14.11
10 14.11
11 14.11
12 14.11
13 14.11
14 14.11
15 14.11
16 14.11
17 14.11
18 14.11
19 14.11
20 14.11
21 14.11
22 14.11
23 14.11
00 15.11
01 15.11
02 15.11
03 15.11
04 15.11
05 15.11
06 15.11
07 15.11
08 15.11
09 15.11
10 15.11
11 15.11
12 15.11
13 15.11
14 15.11
15 15.11
16 15.11
17 15.11
18 15.11
19 15.11
20 15.11
21 15.11
22 15.11
23 15.11
00 16.11
01 16.11
02 16.11
03 16.11
04 16.11
05 16.11
06 16.11
07 16.11
08 16.11
09 16.11
10 16.11
11 16.11
12 16.11
13 16.11
14 16.11
15 16.11
16 16.11
17 16.11
18 16.11
19 16.11
20 16.11
21 16.11
22 16.11
23 16.11
00 17.11
01 17.11
02 17.11
03 17.11
04 17.11
05 17.11
06 17.11
07 17.11
08 17.11
09 17.11
10 17.11
11 17.11
12 17.11
13 17.11
14 17.11
15 17.11
16 17.11
17 17.11
18 17.11
19 17.11
20 17.11
21 17.11
22 17.11
23 17.11
00 18.11
01 18.11
02 18.11
03 18.11
04 18.11
05 18.11
06 18.11
07 18.11
08 18.11
09 18.11
10 18.11
11 18.11
12 18.11
13 18.11
14 18.11
15 18.11
16 18.11
17 18.11
18 18.11
19 18.11
20 18.11
21 18.11
22 18.11
23 18.11
00 19.11
01 19.11
Ветер
(напр.,м/с)
Видим. Явления Облачность Т
(С)
Тd
(С)
f
(%)
Тe
(С)
Тes
(С)
Комфортность P
(гПа)
Po
(гПа)
Тmin
(С)
Tmax
(С)
R
(мм)
R24
(мм)
S
(см)
В 11-13
{13}
н/о н/о +0.5 -6.8 58 -7 -7 холодно 1008.6 1006.5
В 9-11
{13}
н/о н/о +0.8 -5.4 63 -6 -6 холодно 1008.2 1006.1
ЮВ 10-13
{13}
н/о н/о +1.3 -5.8 59 -6 -6 холодно 1007.8 1005.7
ЮВ 12-14
{15}
н/о н/о +0.4 -5.6 64 -8 -8 очень
холодно
1007.5 1005.4
В 9-11
{14}
н/о н/о +0.6 -4.8 67 -7 -7 холодно 1007.0 1004.9
В 11
{15}
20 км 9/0 2000 м
[Ac As]
+0.5 -5.3 65 -7 -7 холодно 1006.7 1004.6 -0.5 +1.4
В 12-15
{15}
н/о н/о +0.2 -4.8 69 -8 -8 очень
холодно
1006.7 1004.6
В 12-15
{16}
н/о н/о +0.1 -4.5 71 -8 -8 очень
холодно
1006.4 1004.3
ЮВ 11-13
{16}
20 км 10/0 2000 м
[Ac As]
+0.3 -5.3 66 -8 -8 очень
холодно
1006.2 1004.1
ЮВ 12-14
{15}
н/о н/о +0.1 -5.7 65 -8 -8 очень
холодно
1006.0 1003.9
ЮВ 11-14
{14}
н/о н/о +0.2 -5.2 67 -8 -8 очень
холодно
1005.3 1003.2
ЮВ 8-11
{16}
30 км 6/0 2000 м
[Ac As Ci fib]
+0.4 -6.4 60 -6 -6 холодно 1004.9 1002.8
ЮВ 11-13
{13}
н/о н/о +1.4 -4.6 64 -6 -6 холодно 1004.3 1002.2
ЮВ 11-13
{14}
н/о н/о +1.2 -2.9 74 -7 -7 холодно 1004.2 1002.1
ЮВ 8-10
{13}
10 км слаб. снег 10/3 300 м
[Frnb As op]
+1.5 -1.4 81 -5 -5 холодно 1003.4 1001.3
ЮВ 7-11
{11}
н/о н/о +3.0 -3.1 64 -3 -3 прохладно 1002.6 1000.5
В 12-15
{15}
н/о н/о +3.3 -3.2 62 -4 -4 прохладно 1002.3 1000.2
В 12-15
{16}
15 км {снег} 10/10 300 м
[Sc]
+3.8 -1.9 66 -3 -3 прохладно 1001.7 999.6 -0.2 +3.8
В 12-14
{16}
н/о н/о +3.7 -1.2 70 -3 -3 прохладно 1001.5 999.4
ЮВ 13-16
{16}
н/о н/о +4.2 -1.8 65 -3 -3 прохладно 1001.2 999.1
ЮВ 12-14
{16}
10 км слаб. дождь 10/3 300 м
[Frnb As op]
+2.8 +0.4 84 -5 -5 холодно 1000.9 998.8
В 11-13
{13}
н/о н/о +4.0 -1.1 69 -3 -3 прохладно 999.7 997.6
В 14-16
{16}
н/о н/о +3.6 -0.4 75 -4 -4 прохладно 999.3 997.2
В 12-14
{16}
10 км слаб. дождь 10/3 300 м
[Frnb As op]
+2.9 +1.3 89 -5 -5 холодно 998.5 996.4
В 12-14
{15}
н/о н/о +3.2 +0.1 80 -4 -4 прохладно 997.6 995.5 0.1
В 11-13
{14}
н/о н/о +3.7 +1.1 83 -3 -3 прохладно 996.6 994.5
ЮВ 11-14
{14}
н/о н/о +5.1 +0.7 73 -1 -1 по сезону 995.8 993.7 0.1
ЮВ 11-13
{13}
н/о н/о +5.1 +0.3 71 -1 -1 по сезону 995.6 993.5
ЮВ 12-13
{14}
н/о н/о +4.8 +0.9 76 -2 -2 по сезону 995.4 993.3
Ю 10-12
{15}
н/о {ливн. осадки, дождь} н/о +4.9 +0.1 71 -1 -1 по сезону 995.2 993.1 +2.7 +5.2 0.2 0.2
ЮВ 9-11
{12}
н/о н/о +5.1 +0.3 71 -1 -1 по сезону 995.6 993.5
ЮВ 9-11
{11}
н/о н/о +5.2 0.0 69 -1 -1 по сезону 995.9 993.8
ЮВ 9-11
{11}
20 км 9/0 2000 м
[Ac As]
+5.4 -0.4 66 -0 -0 по сезону 996.3 994.2
ЮВ 10-12
{13}
н/о н/о +5.6 -0.4 65 -0 -0 по сезону 996.8 994.7
ЮВ 9-11
{13}
н/о н/о +5.7 -0.1 66 0 0 по сезону 997.2 995.1
ЮВ 9-11
{13}
30 км 9/0 2000 м
[Ac As]
+5.7 -1.0 62 0 0 по сезону 997.2 995.1
ЮВ 9-11
{12}
н/о н/о +5.7 -0.5 64 0 0 по сезону 997.4 995.3
ЮВ 8-9
{11}
н/о н/о +5.8 -0.7 63 +1 +1 по сезону 997.6 995.5
ЮВ 7-8
{9}
30 км 9/0 2000 м
[Ac As]
+5.9 -0.2 65 +1 +1 по сезону 998.1 996.0
ЮВ 8-10
{10}
н/о н/о +6.0 +0.2 66 +1 +1 по сезону 998.2 996.1
ЮВ 8-10
{10}
н/о н/о +5.9 +0.1 66 +1 +1 по сезону 998.6 996.5
ЮВ 8-10
{12}
40 км 6/0 2000 м
[Ac As]
+5.6 -0.2 66 0 0 по сезону 998.9 996.8 +4.8 +6.0
ЮВ 8-9
{10}
н/о н/о +5.7 +0.5 69 0 0 по сезону 999.2 997.1
ЮВ 6-8
{10}
40 км 6/0 2000 м
[Ac As]
+5.8 -0.2 65 +1 +1 по сезону 999.5 997.4
ЮВ 7-9
{10}
20 км 9/0 2000 м
[Ac As]
+6.1 0.0 65 +1 +1 по сезону 1000.2 998.1
Ю 8-10
{10}
н/о н/о +5.8 -0.7 63 +1 +1 по сезону 1000.2 998.1
Ю 8-10
{11}
н/о н/о +5.5 +0.3 69 0 0 по сезону 1000.5 998.4
Ю 8-10
{10}
н/о н/о +5.6 +0.4 69 0 0 по сезону 1001.0 998.9
Ю 8-11
{11}
н/о н/о +5.2 +1.3 76 -0 -0 по сезону 1001.6 999.5
Ю 9-11
{11}
н/о н/о +4.6 +2.8 88 -2 -2 по сезону 1001.9 999.8 0.3
ЮЗ 6-9
{11}
н/о {дождь} н/о +4.0 +2.7 91 -2 -2 по сезону 1002.8 1000.7 +4.0 +6.1 0.3 0.3
Ю 4-5
{7}
н/о н/о +3.7 +3.0 95 -1 -1 по сезону 1003.7 1001.6 1
Ю 5-6
{7}
н/о н/о +3.8 +2.3 90 -1 -1 по сезону 1004.5 1002.4 0.4
Ю 3-5
{8}
15 км в посл. час ливневой дождь 9/1 300 м
[Cb calv Ac cuf]
+3.1 +1.5 89 -1 -1 по сезону 1005.0 1002.9 1
Ю 6-8
{8}
н/о н/о +4.6 +2.0 83 -1 -1 по сезону 1005.3 1003.2
ЮЗ 4-7
{9}
н/о н/о +4.2 +1.4 82 -0 -0 по сезону 1006.0 1003.9
Ю 7-9
{9}
15 км {ливн. осадки, дождь} 4/1 300 м
[Cb cap Ac cuf]
+4.6 +1.6 81 -1 -1 по сезону 1006.2 1004.1 3
Ю 7-9
{9}
н/о н/о +4.4 +1.6 82 -1 -1 по сезону 1006.4 1004.3
Ю 7-9
{10}
н/о н/о +4.3 +1.5 82 -1 -1 по сезону 1006.9 1004.8
Ю 7-9
{9}
15 км 4/1 300 м
[Cb cap Ac cuf]
+4.6 +1.8 82 -1 -1 по сезону 1007.4 1005.3
Ю 5-7
{9}
н/о н/о +4.7 +1.0 77 0 0 по сезону 1008.1 1006.0
Ю 6-8
{9}
н/о н/о +5.0 +0.6 73 0 0 по сезону 1008.6 1006.5
Ю 7-9
{10}
15 км {ливн. осадки} 6/1 300 м
[Cb calv Ac cuf]
+5.0 +0.4 72 -0 -0 по сезону 1009.2 1007.1 +2.7 +5.1 3
Ю 6-7
{11}
н/о н/о +4.6 +0.9 77 -1 -1 по сезону 1009.7 1007.6
Ю 8-10
{10}
н/о н/о +4.8 +0.8 75 -1 -1 по сезону 1009.9 1007.8
Ю 8-11
{11}
15 км 6/1 300 м
[Cb calv Ac cuf]
+4.8 +1.3 78 -1 -1 по сезону 1010.3 1008.2
Ю 8-11
{12}
н/о н/о +4.9 +1.2 77 -1 -1 по сезону 1010.8 1008.7
Ю 9-11
{11}
н/о н/о +4.8 +1.1 77 -1 -1 по сезону 1011.2 1009.1
Ю 10-13
{13}
15 км 6/1 300 м
[Cb calv Ac cuf]
+4.8 +0.9 76 -2 -2 по сезону 1011.2 1009.1
ЮВ 10-12
{13}
н/о н/о +4.7 +0.7 75 -2 -2 по сезону 1011.9 1009.8
Ю 11-13
{13}
н/о н/о +4.7 +0.7 75 -2 -2 по сезону 1012.3 1010.2
Ю 11-13
{16}
н/о н/о +4.6 +1.6 81 -2 -2 по сезону 1012.4 1010.3 0.1
Ю 11-14
{16}
н/о н/о +4.5 +1.7 82 -2 -2 по сезону 1012.6 1010.5 0.1
Ю 13-16
{17}
н/о н/о +4.1 +2.3 88 -4 -4 прохладно 1013.0 1010.9 0.3
Ю 13-16
{17}
н/о {ливн. осадки} н/о +3.5 +2.0 90 -4 -4 прохладно 1013.3 1011.2 +3.3 +5.1 0.6 3.2
Ю 12-15
{17}
н/о н/о +4.0 +3.1 94 -4 -4 прохладно 1014.4 1012.3 0.5
Ю 12-16
{16}
н/о н/о +3.7 +2.8 94 -4 -4 прохладно 1014.8 1012.7 1
Ю 12-16
{16}
15 км в посл. час ливневой дождь 9/1 300 м
[Cb calv Ac cuf]
+4.2 +2.6 89 -3 -3 прохладно 1014.9 1012.8 0.1
Ю 14-16
{19}
н/о н/о +4.4 +2.6 88 -3 -3 прохладно 1014.9 1012.8 1
Ю 13-16
{17}
н/о н/о +4.1 +3.1 93 -4 -4 прохладно 1015.7 1013.6 0.7
Ю 13-17
{19}
10 км ливневой дождь 9/3 300 м
[Cb calv Ac cuf]
+4.3 +3.6 95 -3 -3 прохладно 1015.5 1013.4 5
Ю 13-19
{20}
н/о н/о +4.2 +2.9 91 -3 -3 прохладно 1015.3 1013.2 0.5
Ю 13-17
{19}
н/о н/о +4.2 +3.3 94 -3 -3 прохладно 1015.5 1013.4 0.4
Ю 14-19
{19}
15 км в посл. час ливневой дождь 9/1 300 м
[Cb calv Ac cuf]
+4.6 +2.8 88 -3 -3 прохладно 1014.9 1012.8 0.7
Ю 14-18
{20}
н/о н/о +4.4 +3.5 94 -3 -3 прохладно 1014.7 1012.6 1
Ю 15-21
{21}
н/о н/о +4.1 +3.2 94 -4 -4 прохладно 1014.6 1012.5 0.6
Ю 13-18
{21}
10 км дождь {ливн. осадки} 10/3 300 м
[Frnb As op]
+4.4 +3.7 95 -3 -3 прохладно 1014.9 1012.8 +3.5 +4.9 11
Ю 16-22
{22}
н/о н/о +3.6 +3.0 96 -5 -5 холодно 1013.7 1011.6 2
Ю 7-10
{19}
н/о н/о +5.2 +2.9 85 -0 -0 по сезону 1015.3 1013.2 0.7
ЮЗ 9-12
{12}
15 км {ливн. осадки, дождь} 6/1 300 м
[Cb calv Ac cuf]
+5.4 +1.5 76 -1 -1 по сезону 1015.3 1013.2
ЮЗ 8-11
{12}
н/о н/о +5.7 +2.0 77 0 0 по сезону 1015.6 1013.5
ЮЗ 7-10
{12}
н/о н/о +5.6 +2.3 79 0 0 по сезону 1015.9 1013.8
ЮЗ 7-10
{22}
15 км {ливн. осадки, дождь} 6/1 300 м
[Cb calv Ac cuf]
+5.4 +1.5 76 0 0 по сезону 1016.2 1014.1 2
ЮЗ 6-9
{10}
н/о н/о +5.8 +1.9 76 +1 +1 по сезону 1016.5 1014.4
ЮЗ 6-9
{9}
н/о н/о +5.5 +1.8 77 +1 +1 по сезону 1016.8 1014.7
Ю 5-7
{9}
н/о н/о +5.3 +2.5 82 +1 +1 по сезону 1016.9 1014.8
ЮЗ 5-6
{8}
н/о н/о +5.0 +1.9 80 0 0 по сезону 1017.0 1014.9
ЮЗ 6-9
{9}
н/о н/о +5.2 +2.7 84 0 0 по сезону 1016.9 1014.8 0.1
Ю 7
{12}
н/о {ливн. осадки} н/о +5.0 +3.3 89 -1 -1 по сезону 1016.7 1014.6 +3.4 +5.9 3 13.8
Ю 9-12
{12}
н/о н/о +4.6 +2.6 87 -2 -2 по сезону 1017.0 1014.9
Ю 8-11
{12}
н/о н/о +4.5 +2.0 84 -2 -2 по сезону 1017.1 1015.0 0.2
Ю 8-10
{11}
15 км {ливн. осадки} 9/1 300 м
[Cb cap Ac cuf]
+4.6 +1.3 79 -1 -1 по сезону 1017.0 1014.9
ЮВ 6-8
{9}
н/о н/о +4.6 +0.9 77 -1 -1 по сезону 1016.9 1014.8
ЮВ 6-7
{8}
н/о н/о +5.0 -0.2 69 0 0 по сезону 1016.6 1014.5
ЮВ 7-9
{12}
50 км {ливн. осадки} 4/1 300 м
[Cb cap Ac cuf]
+5.3 -0.7 65 0 0 по сезону 1016.3 1014.2 0.2
ЮВ 8-10
{10}
н/о н/о +5.2 -1.7 61 -0 -0 по сезону 1016.0 1013.9
ЮВ 9-10
{10}
н/о н/о +5.3 -1.6 61 -0 -0 по сезону 1015.6 1013.5
ЮВ 9-10
{11}
50 км 6/1 300 м
[Cb cap Ac cuf]
+5.3 -0.7 65 -0 -0 по сезону 1014.9 1012.8
ЮВ 8-9
{12}
н/о н/о +5.2 -0.8 65 -0 -0 по сезону 1014.8 1012.7
ЮВ 6-7
{9}
н/о н/о +5.2 -0.6 66 +1 +1 по сезону 1014.2 1012.1
ЮВ 9-11
{12}
40 км 9/1 300 м
[Cb calv Ac cuf]
+5.0 -2.1 60 -1 -1 по сезону 1014.0 1011.9 +4.4 +5.5 0.2
ЮВ 8-10
{12}
н/о н/о +5.0 -1.0 65 -1 -1 по сезону 1014.2 1012.1
ЮВ 8-10
{11}
н/о н/о +4.6 -2.0 62 -1 -1 по сезону 1014.1 1012.0
ЮВ 9-11
{12}
50 км 6/0 2000 м
[Ac As]
+4.2 -1.8 65 -2 -2 по сезону 1014.0 1011.9
ЮВ 9-11
{11}
н/о н/о +4.0 -1.7 66 -2 -2 по сезону 1013.8 1011.7
ЮВ 10-11
{12}
н/о н/о +4.2 -1.6 66 -2 -2 по сезону 1013.7 1011.6
ЮВ 9-11
{12}
50 км 8/0 2000 м
[Ac As]
+4.3 -1.1 68 -2 -2 по сезону 1013.3 1011.2
ЮВ 10-11
{12}
н/о н/о +4.4 -1.2 67 -2 -2 по сезону 1013.2 1011.1
ЮВ 10-11
{11}
н/о н/о +4.6 -1.4 65 -2 -2 по сезону 1013.1 1011.0
ЮВ 10-11
{11}
н/о н/о +4.8 -1.0 66 -1 -1 по сезону 1012.7 1010.6
ЮВ 10-12
{12}
н/о н/о +4.9 -2.0 61 -1 -1 по сезону 1012.5 1010.4
ЮВ 8-10
{11}
н/о н/о +4.8 -1.8 62 -1 -1 по сезону 1012.3 1010.2
В 8
{12}
н/о н/о +4.4 -1.0 68 -1 -1 по сезону 1012.6 1010.5 +3.9 +5.3 0.2
В 8-9
{10}
н/о н/о +4.3 -1.3 67 -2 -2 по сезону 1012.8 1010.7
ЮВ 7-8
{9}
н/о н/о +4.4 -2.6 60 -1 -1 по сезону 1013.0 1010.9
В 7-9
{9}
50 км 9/0 2000 м
[Ac As]
+4.3 -1.3 67 -1 -1 по сезону 1013.1 1011.0
В 6-8
{8}
н/о н/о +4.3 -1.7 65 -1 -1 по сезону 1013.2 1011.1
ЮВ 6-7
{8}
н/о н/о +4.4 -1.8 64 -1 -1 по сезону 1013.5 1011.4
ЮВ 6-7
{10}
50 км 9/0 2000 м
[Ac As]
+4.4 -1.6 65 -1 -1 по сезону 1013.5 1011.4
ЮВ 9-10
{10}
н/о н/о +4.8 -1.2 65 -1 -1 по сезону 1013.7 1011.6
ЮВ 7-9
{10}
н/о н/о +4.9 -1.7 62 -0 -0 по сезону 1013.8 1011.7
В 8-9
{10}
50 км 10/0 2000 м
[Ac As]
+5.1 -1.1 64 -0 -0 по сезону 1014.0 1011.9
ЮВ 8-10
{10}
н/о н/о +4.9 -1.7 62 -1 -1 по сезону 1014.3 1012.2
ЮВ 9-10
{10}
н/о н/о +4.6 -1.2 66 -1 -1 по сезону 1014.6 1012.5
ЮВ 7-9
{11}
50 км 10/0 2000 м
[Ac As]
+4.7 -2.1 61 -1 -1 по сезону 1014.9 1012.8 +4.2 +5.2
ЮВ 6-7
{8}
н/о н/о +4.7 -1.1 66 -0 -0 по сезону 1015.5 1013.4
ЮВ 7-8
{8}
н/о н/о +4.6 -0.8 68 -1 -1 по сезону 1015.9 1013.8
ЮВ 9-10
{10}
40 км 10/0 2000 м
[Ac As]
+4.4 -1.0 68 -2 -2 по сезону 1016.2 1014.1
ЮВ 6-9
{10}
н/о н/о +4.2 -1.8 65 -1 -1 по сезону 1016.7 1014.6
Ю 6-7
{9}
н/о н/о +4.2 -2.0 64 -1 -1 по сезону 1016.8 1014.7
ЮВ 6-7
{10}
20 км 10/0 2000 м
[Ac As]
+4.3 -1.3 67 -1 -1 по сезону 1017.0 1014.9
ЮВ 6-8
{9}
н/о н/о +4.4 -1.0 68 -1 -1 по сезону 1017.3 1015.2
Ю 6-9
{9}
н/о н/о +3.9 +0.1 76 -1 -1 по сезону 1017.3 1015.2
ЮВ 7-9
{10}
н/о н/о +3.7 +0.8 81 -2 -2 по сезону 1017.6 1015.5
ЮВ 9-10
{10}
н/о н/о +4.2 +0.9 79 -2 -2 по сезону 1017.8 1015.7
ЮВ 9-12
{13}
н/о н/о +4.4 +1.4 81 -2 -2 по сезону 1017.6 1015.5
Ю 10-13
{13}
н/о н/о +4.9 +1.6 79 -2 -2 по сезону 1017.8 1015.7 +3.6 +4.9
Ю 11-13
{13}
н/о н/о +5.2 +1.3 76 -1 -1 по сезону 1018.2 1016.1
Ю 11-13
{14}
н/о н/о +5.1 +0.9 74 -1 -1 по сезону 1018.6 1016.5
Ю 10-14
{14}
20 км 10/10 300 м
[St]
+5.4 +0.6 71 -1 -1 по сезону 1019.1 1017.0
Ю 9-11
{12}
н/о н/о +5.2 +0.6 72 -1 -1 по сезону 1019.4 1017.3
ЮВ 6-8
{10}
н/о н/о +5.2 +0.4 71 0 0 по сезону 1019.6 1017.5
ЮВ 7-8
{14}
30 км 8/1 300 м
[St Ac As Ci fib]
+5.1 +0.3 71 -0 -0 по сезону 1019.7 1017.6
ЮВ 6-7
{8}
н/о н/о +5.3 -0.3 67 +1 +1 по сезону 1019.5 1017.4
ЮВ 7-8
{8}
н/о н/о +5.8 +0.6 69 +1 +1 по сезону 1019.2 1017.1
В 5-6
{8}
20 км 10/10 300 м
[St]
+5.6 +0.2 68 +1 +1 по сезону 1018.7 1016.6
В 7-9
{9}
н/о н/о +5.6 -0.6 64 +1 +1 по сезону 1018.4 1016.3
В 6-7
{8}
н/о н/о +5.8 +0.4 68 +1 +1 по сезону 1017.9 1015.8
ЮВ 8-9
{9}
20 км 10/10 300 м
[St]
+6.3 +0.9 68 +1 +1 по сезону 1017.6 1015.5 +4.8 +6.3
ЮВ 9-12
{13}
н/о н/о +5.1 +3.3 88 -1 -1 по сезону 1017.4 1015.3 0.1
ЮВ 10-12
{12}
н/о н/о +5.0 +2.7 85 -1 -1 по сезону 1017.1 1015.0 0.4
ЮВ 10-12
{12}
10 км слаб. дождь 10/3 300 м
[Frnb As op]
+4.8 +3.0 88 -2 -2 по сезону 1017.0 1014.9 0.2
ЮВ 10-11
{12}
н/о н/о +4.9 +2.6 85 -2 -2 по сезону 1016.8 1014.7 0.3
ЮВ 11-13
{13}
н/о н/о +5.2 +1.9 79 -1 -1 по сезону 1016.2 1014.1 0.3
ЮВ 12-14
{14}
10 км слаб. дождь 10/3 300 м
[Frnb As op]
+5.4 +2.6 82 -1 -1 по сезону 1015.7 1013.6 1
ЮВ 12-14
{15}
н/о н/о +5.2 +1.7 78 -2 -2 по сезону 1014.9 1012.8
Местоположение метеостанции Мыкен (Норвегия): широта 66.77 долгота 12.48 высота над уровнем моря 17 м.
В архиве по умолчанию представлена погода на Мыкене за последнюю неделю. Архивные данные за месяц целиком и за предыдущие месяцы, начиная с января 2011 года, Вы можете получить, выбрав интересующий диапазон дат из раскрывающегося списка и нажав кнопку "Найти!".
*Определитесь, кто Вы:
Внимание! Время в таблицах - всемирное. Для получения местного времени необходимо прибавить поправку, которая равна 1 ч.
Смотрите также архив погоды в соседних городах и на ближайших метеорологических станциях:
Партнеры нашего сайта:      
Пояснения к столбцам:
  • Ветер - указаны скорость ветра в м/с - средняя за 10 мин, порывы в срок и между сроками (в фигурных скобках) и направление, откуда дует ветер: С - северный,
  • СВ - северо-восточный, В - восточный, ЮВ - юго-восточный, Ю - южный, ЮЗ - юго-западный, З - западный, СЗ - северо-западный.
  • Видимость - горизонтальная дальность видимости в метрах или километрах. При видимости от 1 до 10 км при отсутствии осадков обычно наблюдается дымка, при ухудшении видимости до 1 км и менее - туман. В сухую погоду видимость может ухудшаться дымом, пылью или мглою.
  • Явления - указаны атмосферные явления, наблюдавшиеся в срок или в последний час перед сроком; фигурными скобками обозначены явления, наблюдавшиеся между сроками (за 1-3 часа до срока); квадратными скобками обозначены град или гололедные отложения с указанием их диаметра в мм.
  • Облачность - указаны через наклонную черту общая и нижняя облачность в баллах и высота нижней границы облаков в метрах; квадратными скобками обозначены формы облаков: Ci - перистые, Cs - перисто-слоистые, Cc - перисто-кучевые, Ac - высококучевые, As - высокослоистые, Sc - слоисто-кучевые, Ns - слоисто-дождевые, Cu - кучевые, Cb - кучево-дождевые. Подробнее классификацию облаков см. в Атласе облаков (PDF).
  • T - Температура воздуха - температура, измеренная на высоте 2 м над землей.
  • Td - Температура точки росы - температура, при понижении до которой содержащийся в воздухе водяной пар достигнет насыщения.
  • f - Относительная влажность воздуха - влажноcть воздуха, измеренная на высоте 2 м над землей.
  • Te - Эффективная температура - температура, которую ощущает одетый по сезону человек в тени. Характеристика душности погоды. При расчете учитывается влияние влажности воздуха и скорости ветра на теплоощущения человека.
  • Tes - Эффективная температура на солнце - температура, которую ощущает человек, с поправкой на солнечный нагрев. Характеристика знойности погоды. Зависит от высоты солнца над горизонтом, облачности и скорости ветра. Ночью, в пасмурную погоду, а также при ветре 12 м/с и более поправка равна нулю.
  • P - Атмосферное давление - приведенное к уровню моря атмосферное давление.
  • Po - Атмосферное давление - измеренное на уровне метеостанции атмосферное давление.
  • Tmin - Минимальная температура - минимум температуры воздуха на высоте 2 м над землей.
  • Tmax - Максимальная температура - максимум температуры воздуха на высоте 2 м над землей.
  • R - Количество осадков - Количество выпавших осадков за период времени, мм. При наведении курсора мыши на число - период времени, за который выпало указанное количество осадков.
  • R24 - Количество осадков - Количество выпавших осадков за 24 часа, мм.
  • S - Снежный покров - Высота снежного покрова, см. При наведении курсора мыши на число - состояние снежного покрова и степень покрытия местности в баллах.